User: anonymous
Location: Elk Forest
(39.5314°N, 75.8738°W)
Time: 00:29:10
(UTC-04:00)
Language:

Resurs 01 Rocket - Orbit

View from above orbital plane
View from above orbital plane
View from above satellite
View from above satellite

Ground track
Ground track

The orbit data is extracted from the following two-line orbital elements,

1 23343U 94074B   14213.64293196  .00000329  00000-0  55370-4 0   708
2 23343 098.2250 218.3566 0007191 186.1748 311.0202 14.76154884 61809
Epoch (UTC): 01 August 2014 15:25:49
Eccentricity: 0.0007191
inclination: 98.2250°
perigee height: 636 km
apogee height: 646 km
right ascension of ascending node: 218.3566°
argument of perigee: 186.1748°
revolutions per day: 14.76154884
mean anomaly at epoch: 311.0202°
orbit number at epoch: 6180

The dashed part of the orbit path shows where the satellite is in the earth's shadow,  

DLR